User: anonymous   Login
Location: Grisols
(45.0093°N, 3.1167°E)
Time: 08:32:53
(UTC+00:00)
Language:

MOS 1 - Orbit

View from above orbital plane
View from above orbital plane
View from above satellite
View from above satellite

Ground track
Ground track

The orbit data is extracted from the following two-line orbital elements,

1 17527U 87018A   19349.90593501 -.00000166 +00000-0 -78142-4 0  9995
2 17527 099.1848 026.3048 0007600 304.6080 228.7194 14.02551358677041
Epoch (UTC): 15 December 2019 21:44:32
Eccentricity: 0.0007600
inclination: 99.1848°
perigee height: 879 km
apogee height: 890 km
right ascension of ascending node: 26.3048°
argument of perigee: 304.6080°
revolutions per day: 14.02551358
mean anomaly at epoch: 228.7194°
orbit number at epoch: 67704

The dashed part of the orbit path shows where the satellite is in the earth's shadow,  

DLR